This is the latest recevied weather packets stored in our database for station/object KQ4WWD. If no packets are shown the sender has not sent any weather packets the latest 10 day(s).
| Time | Temp. | Humidity | Pressure | Rain* | Wind** | Luminosity | Snow |
|---|---|---|---|---|---|---|---|
| 1777722132 | 21.67° C | 94% | 1009.3 hPa | 0 mm | - | 41 W/m² | - |
| 1777721829 | 21.67° C | 95% | 1009.5 hPa | 0 mm | - | 32 W/m² | - |
| 1777721527 | 21.67° C | 95% | 1009.5 hPa | 0 mm | - | 33 W/m² | - |
| 1777721225 | 21.67° C | 95% | 1009.2 hPa | 0 mm | - | 29 W/m² | - |
| 1777720922 | 21.67° C | 95% | 1009.3 hPa | 0 mm | - | 24 W/m² | - |
| 1777720619 | 21.67° C | 95% | 1009.1 hPa | 0 mm | - | 24 W/m² | - |
| 1777720317 | 21.11° C | 95% | 1009.6 hPa | 0 mm | - | 16 W/m² | - |
| 1777720015 | 21.11° C | 95% | 1009.4 hPa | 0 mm | - | 16 W/m² | - |
| 1777719711 | 21.11° C | 95% | 1009.3 hPa | 0 mm | - | 10 W/m² | - |
| 1777719409 | 21.11° C | 96% | 1009.3 hPa | 0 mm | - | 5 W/m² | - |
| 1777719106 | 21.11° C | 96% | 1009.1 hPa | 0 mm | - | 2 W/m² | - |
| 1777718803 | 21.11° C | 96% | 1008.7 hPa | 0 mm | - | 0 W/m² | - |
| 1777718501 | 21.11° C | 96% | 1009 hPa | 0 mm | - | 0 W/m² | - |
| 1777718198 | 21.11° C | 96% | 1008.6 hPa | 0 mm | - | 0 W/m² | - |
| 1777717896 | 21.11° C | 96% | 1008.7 hPa | 0 mm | - | 0 W/m² | - |
| 1777717592 | 21.11° C | 96% | 1008.7 hPa | 0 mm | - | 0 W/m² | - |
| 1777717289 | 21.11° C | 96% | 1008.6 hPa | 0 mm | - | 0 W/m² | - |
| 1777716987 | 21.11° C | 96% | 1008.6 hPa | 0 mm | - | 0 W/m² | - |
| 1777716685 | 21.11° C | 95% | 1008.2 hPa | 0 mm | - | 0 W/m² | - |
| 1777716384 | 21.11° C | 95% | 1008.6 hPa | 0 mm | - | 0 W/m² | - |
| 1777716082 | 21.11° C | 95% | 1008.7 hPa | 0 mm | - | 0 W/m² | - |
| 1777715779 | 21.11° C | 95% | 1008.8 hPa | 0 mm | - | 0 W/m² | - |
| 1777715476 | 21.11° C | 95% | 1008.8 hPa | 0 mm | - | 0 W/m² | - |
| 1777715173 | 21.11° C | 96% | 1009 hPa | 0 mm | - | 0 W/m² | - |
| 1777714872 | 21.11° C | 96% | 1008.7 hPa | 0 mm | - | 0 W/m² | - |
* Rain latest hour (hover to see other rain measurements)
** Current wind speed in m/s (hover to see current wind gust speed)